This is the latest recevied weather packets stored in our database for station/object VK4RM-13. If no packets are shown the sender has not sent any weather packets the latest 10 day(s).
| Time | Temp. | Humidity | Pressure | Rain* | Wind** | Luminosity | Snow |
|---|---|---|---|---|---|---|---|
| 1778020597 | 22.22° C | 82% | 995.6 hPa | 0 mm | - | - | - |
| 1778019997 | 22.22° C | 84% | 995.5 hPa | 0 mm | - | - | - |
| 1778019397 | 21.67° C | 86% | 995.6 hPa | 0 mm | - | - | - |
| 1778018797 | 21.11° C | 88% | 995.6 hPa | 0 mm | - | - | - |
| 1778018197 | 20.56° C | 90% | 995.6 hPa | 0 mm | - | - | - |
| 1778017597 | 20° C | 93% | 995.6 hPa | 0 mm | - | - | - |
| 1778016997 | 20° C | 94% | 995.5 hPa | 0 mm | - | - | - |
| 1778016397 | 19.44° C | 93% | 995.4 hPa | 0 mm | - | - | - |
| 1778015797 | 19.44° C | 93% | 995.3 hPa | 0 mm | - | - | - |
| 1778015197 | 19.44° C | 94% | 995.2 hPa | 0 mm | - | - | - |
| 1778014597 | 19.44° C | 94% | 995.1 hPa | 0 mm | - | - | - |
| 1778013998 | 18.89° C | 95% | 995 hPa | 0 mm | - | - | - |
| 1778013397 | 18.33° C | 95% | 994.9 hPa | 0 mm | - | - | - |
| 1778012797 | 18.33° C | 94% | 994.9 hPa | 0 mm | - | - | - |
| 1778012197 | 18.33° C | 94% | 994.7 hPa | 0 mm | - | - | - |
| 1778011597 | 18.33° C | 94% | 994.7 hPa | 0 mm | - | - | - |
| 1778011000 | 18.33° C | 94% | 994.6 hPa | 0 mm | - | - | - |
| 1778010397 | 18.33° C | 94% | 994.6 hPa | 0 mm | - | - | - |
| 1778009797 | 18.33° C | 94% | 994.5 hPa | 0 mm | - | - | - |
| 1778009197 | 18.33° C | 93% | 994.3 hPa | 0 mm | - | - | - |
| 1778008597 | 18.33° C | 93% | 994.2 hPa | 0 mm | - | - | - |
| 1778007997 | 18.89° C | 94% | 994.1 hPa | 0 mm | - | - | - |
| 1778007398 | 18.89° C | 93% | 994 hPa | 0 mm | - | - | - |
| 1778006797 | 18.89° C | 93% | 994 hPa | 0 mm | - | - | - |
| 1778006197 | 19.44° C | 93% | 994 hPa | 0 mm | - | - | - |
* Rain latest hour (hover to see other rain measurements)
** Current wind speed in m/s (hover to see current wind gust speed)